Temperature
8 8 8 8 8 8 8 8 8 8 7 7 7 7 6 6 5 5 5 4 4 4 4 3 3 3 2 2 2 2 1 1 1 1 2 2 2 2 2 2 2 2 2
8 8 8 8 8 7 7 7 7 7 7 7 6 6 6 5 5 4 4 4 4 3 3 3 3 2 2 2 2 1 1 1 1 1 1 2 2 2 2 2 2 2 2
7 7 7 7 7 7 7 7 7 6 6 6 6 5 5 5 4 4 4 3 3 3 3 2 2 2 2 2 1 1 1 1 1 1 1 1 1 1 1 1 2 1 1
6 6 6 7 6 6 6 6 6 6 6 5 5 5 4 4 4 3 3 3 2 2 2 2 2 2 2 1 1 1 1 1 1 0 0 0 0 1 1 1 1 1 1
6 6 6 6 6 6 5 5 5 5 5 5 5 4 4 3 3 3 2 2 2 2 2 2 2 2 1 1 1 1 1 0 0 0 0 -0 0 0 0 0 0 0 1
5 5 5 5 5 5 5 5 4 4 4 4 4 3 3 3 3 2 2 2 2 2 1 1 1 1 1 1 1 1 0 0 -0 -0 -0 -0 -0 -0 -0 -1 -1 -0 -0
4 4 4 5 5 4 4 4 4 4 4 3 3 3 3 3 2 2 1 1 1 1 1 1 1 1 1 1 0 0 0 0 -0 -1 -1 -1 -1 -1 -1 -1 -1 -1 -1
3 3 4 4 4 4 4 4 3 3 3 3 3 2 2 2 2 1 1 1 1 1 1 1 1 0 0 0 0 0 0 -0 -0 -1 -1 -1 -1 -1 -1 -1 -1 -1 -1
3 3 3 3 3 3 3 3 3 3 2 2 2 2 2 1 1 1 1 0 0 0 0 0 0 0 -0 -0 -0 -0 -0 -0 -0 -0 -0 -1 -1 -1 -1 -1 -1 -1 -1
2 2 2 2 2 2 2 2 2 2 2 2 1 1 1 1 1 0 0 -0 0 0 0 -0 -0 -0 -0 -0 -1 -1 -1 -1 -1 -0 -0 -0 -1 -1 -1 -1 -1 -1 -2
1 1 1 2 2 2 2 2 2 1 1 1 1 1 0 0 0 -0 -0 -0 -0 -0 -0 -0 -0 -1 -1 -1 -1 -1 -1 -1 -1 -1 -1 -1 -1 -1 -1 -1 -2 -2 -2
1 1 1 1 1 1 1 1 1 1 0 0 -0 -0 -0 -1 -1 -1 -1 -1 -1 -1 -1 -1 -1 -1 -1 -1 -1 -1 -1 -1 -1 -1 -1 -1 -1 -1 -1 -2 -2 -2 -2
0 0 0 0 0 0 0 0 0 -0 -0 -1 -1 -1 -1 -1 -1 -1 -1 -1 -1 -1 -1 -1 -1 -1 -1 -1 -1 -1 -2 -2 -2 -2 -2 -2 -2 -2 -2 -2 -2 -2 -2
-1 -1 -1 -0 -0 -0 -0 -1 -1 -1 -1 -2 -2 -2 -2 -2 -2 -2 -2 -2 -2 -2 -2 -2 -2 -2 -2 -2 -2 -2 -2 -2 -2 -2 -2 -2 -2 -2 -2 -2 -2 -2 -2
-1 -1 -1 -1 -1 -1 -1 -1 -2 -2 -2 -2 -2 -2 -2 -2 -2 -2 -2 -2 -2 -2 -2 -2 -2 -2 -2 -2 -2 -2 -2 -2 -2 -2 -2 -2 -2 -2 -2 -3 -3 -2 -3
-2 -2 -2 -2 -2 -2 -2 -2 -2 -2 -2 -2 -2 -3 -3 -3 -3 -3 -3 -3 -3 -3 -3 -2 -2 -3 -3 -3 -3 -3 -3 -3 -3 -3 -3 -3 -3 -3 -3 -3 -3 -3 -3
-3 -3 -3 -3 -3 -3 -3 -3 -3 -3 -3 -3 -3 -3 -3 -3 -3 -3 -3 -3 -3 -3 -3 -3 -3 -3 -3 -3 -3 -3 -3 -3 -3 -3 -3 -3 -3 -3 -3 -3 -3 -3 -3
-3 -3 -3 -3 -3 -3 -4 -4 -4 -3 -3 -3 -3 -3 -3 -3 -3 -3 -3 -3 -3 -3 -3 -3 -3 -3 -3 -3 -3 -3 -3 -3 -3 -3 -3 -3 -3 -3 -3 -3 -3 -3 -3
-4 -4 -4 -4 -4 -4 -4 -4 -4 -4 -4 -4 -4 -4 -4 -4 -4 -4 -4 -4 -4 -4 -4 -4 -4 -4 -4 -4 -4 -4 -3 -3 -3 -3 -3 -3 -3 -3 -3 -3 -3 -3 -3
-5 -5 -5 -5 -5 -5 -5 -5 -5 -5 -5 -5 -5 -5 -4 -4 -4 -4 -4 -4 -4 -4 -4 -4 -4 -4 -4 -4 -4 -4 -4 -4 -4 -4 -4 -4 -4 -4 -4 -4 -4 -4 -4
-6 -6 -6 -6 -6 -6 -5 -6 -6 -6 -6 -6 -5 -5 -5 -5 -5 -5 -5 -5 -5 -5 -5 -4 -4 -4 -4 -4 -4 -4 -4 -4 -4 -4 -4 -4 -4 -4 -4 -4 -4 -4 -3
-6 -6 -6 -6 -6 -6 -6 -6 -6 -6 -6 -6 -6 -6 -6 -6 -5 -5 -5 -5 -5 -5 -5 -5 -5 -5 -5 -5 -4 -4 -4 -4 -4 -4 -4 -4 -4 -4 -4 -4 -4 -3 -3
-7 -7 -7 -7 -7 -7 -7 -7 -7 -7 -7 -7 -7 -6 -6 -6 -6 -6 -6 -6 -5 -5 -5 -5 -5 -5 -5 -5 -5 -5 -4 -4 -4 -4 -4 -4 -4 -4 -4 -3 -3 -3 -3
-7 -7 -7 -7 -7 -7 -7 -7 -7 -7 -7 -7 -7 -7 -7 -7 -6 -6 -6 -6 -6 -6 -5 -5 -5 -5 -5 -5 -5 -5 -4 -4 -4 -4 -4 -4 -4 -4 -3 -3 -3 -3 -3
-8 -8 -8 -8 -8 -8 -8 -8 -8 -8 -8 -8 -7 -7 -7 -7 -7 -7 -6 -6 -6 -6 -6 -6 -5 -5 -5 -5 -5 -4 -4 -4 -4 -4 -4 -4 -4 -4 -4 -3 -3 -3 -3
-8 -8 -8 -8 -8 -8 -8 -8 -8 -8 -8 -8 -8 -8 -8 -7 -7 -7 -7 -7 -7 -6 -6 -6 -6 -5 -5 -5 -5 -4 -4 -4 -4 -4 -4 -4 -4 -4 -4 -4 -4 -4 -3
Wind_Speed
9 9 8 7 7 6 5 5 5 4 5 4 4 4 3 3 3 3 3 3 4 4 4 5 5 6 5 5 5 6 7 8 11 11 11 12 14 14 14 14 15 15 15
8 8 7 7 6 6 5 5 5 5 4 4 4 4 3 3 3 3 3 4 4 5 5 5 6 5 6 6 6 7 7 8 10 13 12 11 13 14 14 14 14 13 14
7 7 7 6 6 6 5 5 4 4 4 4 4 4 3 4 4 4 4 4 5 5 5 6 6 6 7 7 7 8 7 8 9 10 12 11 11 11 13 13 13 12 13
7 7 6 6 5 5 5 4 4 4 4 4 4 4 4 4 4 4 4 5 5 5 6 6 7 7 8 8 7 8 8 9 9 9 10 10 10 11 11 11 12 12 11
6 6 5 5 4 4 4 4 3 3 3 3 3 3 3 3 4 4 4 5 5 6 6 6 7 8 9 8 8 8 9 8 9 9 9 10 10 10 10 10 12 12 12
6 5 4 4 4 4 3 3 3 2 2 2 3 3 3 3 4 5 4 5 5 6 6 6 7 7 8 10 12 12 11 10 10 9 9 10 12 12 11 10 11 11 9
5 5 4 4 4 3 3 3 2 2 2 2 2 3 3 3 3 4 5 5 5 6 6 6 6 6 8 8 10 11 11 11 12 11 11 11 12 12 12 12 11 11 11
4 4 4 3 3 3 3 2 2 2 2 2 2 2 3 3 3 4 5 5 6 6 6 6 7 7 7 8 9 9 9 9 10 9 10 11 11 11 11 10 11 11 10
4 3 2 2 3 2 2 2 1 1 1 1 2 2 2 3 3 5 5 4 5 6 6 6 7 7 9 10 9 9 10 9 9 11 13 13 14 14 11 8 8 7 8
3 2 2 2 2 2 2 1 1 1 1 1 1 2 2 3 4 4 5 4 5 5 5 6 7 8 10 10 8 9 10 10 10 10 10 11 10 9 9 7 6 6 7
2 2 2 2 2 2 1 1 1 1 0 0 1 2 2 3 4 4 5 4 4 5 5 5 6 9 10 10 9 8 10 11 10 9 9 9 8 7 6 6 6 5 6
2 2 2 2 2 1 2 1 1 1 0 0 1 2 2 3 4 5 6 6 6 5 5 5 6 9 10 10 9 10 11 10 7 7 7 7 7 7 7 7 7 7 7
2 2 2 2 2 1 1 1 1 1 0 1 1 2 2 3 4 6 6 7 8 6 5 8 9 9 9 8 9 10 9 6 6 6 7 7 7 7 7 7 7 6 7
2 2 1 1 2 2 1 1 1 1 1 1 2 2 3 3 3 4 4 5 6 6 6 7 8 8 7 8 8 7 6 6 6 6 7 6 6 6 6 6 5 6 5
2 2 1 1 1 1 1 1 1 1 2 3 3 3 3 4 5 7 6 5 5 5 6 5 5 5 5 6 6 6 6 6 6 6 5 6 6 6 6 5 5 5 4
2 2 1 1 1 1 1 2 2 2 4 4 4 5 4 6 7 8 8 7 7 6 5 4 5 5 6 6 6 6 6 6 6 6 6 5 6 6 6 5 5 4 4
2 2 1 1 1 1 1 2 2 3 3 3 4 5 6 7 6 7 7 6 5 5 4 4 5 6 6 6 6 6 6 6 6 6 6 6 6 6 5 5 5 4 4
2 2 2 1 1 2 2 2 2 3 3 3 3 5 6 6 6 6 6 4 3 3 4 5 5 6 6 6 6 6 6 6 6 6 6 6 5 5 5 5 4 4 4
2 1 2 2 2 2 2 2 3 3 3 3 4 4 5 5 5 5 4 3 4 4 5 5 6 6 6 6 6 6 6 6 6 6 6 6 5 5 5 5 4 5 4
2 2 3 2 2 2 2 2 3 3 3 3 3 4 4 4 4 4 4 4 4 5 5 5 6 6 6 6 6 6 6 6 6 6 6 5 5 5 5 5 4 3 3
2 2 3 3 2 2 2 3 3 3 3 3 3 4 5 3 4 4 4 4 5 5 5 6 6 6 6 6 6 6 7 6 6 6 5 5 5 4 4 3 3 3 3
2 2 2 2 2 3 3 3 3 3 3 4 4 4 5 4 4 4 4 5 5 5 6 6 6 6 6 6 6 6 7 6 6 6 5 5 5 4 3 3 2 2 2
2 2 2 2 3 3 3 3 3 3 3 4 4 4 4 4 4 5 5 5 5 6 6 6 6 6 7 7 7 6 6 6 6 6 5 5 4 3 2 2 2 2 2
2 3 3 3 3 3 3 3 3 3 4 4 4 4 4 4 5 5 5 5 6 6 6 6 7 8 9 8 8 7 7 8 7 6 6 4 3 3 2 2 2 1 1
2 2 3 3 3 3 3 3 3 3 4 4 4 4 4 4 5 5 5 5 6 6 7 7 7 8 9 10 9 8 9 9 8 6 4 3 2 2 2 1 1 1 2
2 2 3 3 3 3 3 3 3 4 4 4 4 4 4 4 4 5 5 5 6 6 7 7 8 9 10 9 9 9 9 7 6 5 2 1 1 1 1 1 1 1 2
Wind_Direction
169 169 168 170 170 170 172 177 181 180 179 183 189 195 202 212 224 234 248 261 266 274 278 280 284 289 289 288 286 281 279 278 284 294 300 308 310 310 312 313 312 311 309
167 165 166 165 166 169 173 177 181 183 184 186 192 197 206 219 231 240 248 259 265 273 278 280 284 290 290 291 289 287 285 282 285 293 300 307 309 311 311 311 314 312 310
162 163 162 164 168 173 175 176 180 183 185 189 197 202 213 226 236 244 251 259 266 273 278 281 284 288 291 293 292 290 289 288 286 289 296 303 306 311 314 313 314 314 313
157 159 162 166 171 172 172 174 178 181 188 197 205 211 223 233 240 249 259 267 274 278 280 280 281 284 290 295 293 292 294 293 294 295 297 304 307 313 316 317 318 319 317
152 152 155 159 160 162 165 169 172 180 192 202 209 219 230 239 246 258 268 273 278 282 283 283 284 288 292 294 293 295 296 295 298 298 300 304 310 318 318 315 313 316 316
145 146 144 145 145 151 158 162 167 180 188 195 209 224 238 249 265 270 280 273 277 279 284 289 290 286 289 291 293 295 294 294 297 297 299 303 307 311 312 313 314 317 314
134 134 136 138 137 141 148 155 168 181 188 202 218 233 250 267 275 273 281 285 279 281 283 287 291 294 296 294 293 291 288 288 288 289 292 298 302 308 309 309 310 309 304
119 123 127 132 134 135 141 155 169 182 193 215 235 246 262 277 287 288 294 284 281 284 285 288 292 296 299 303 301 297 295 294 292 289 290 296 299 304 303 300 301 302 299
108 107 113 129 132 133 137 150 166 181 205 228 243 254 266 287 302 303 306 293 289 291 292 292 292 295 305 310 305 302 302 302 298 293 294 297 301 304 307 308 309 311 308
97 96 100 120 135 139 142 148 160 187 212 242 267 279 282 294 308 310 308 295 295 302 302 299 296 304 311 311 304 301 302 306 309 308 305 305 305 305 308 303 302 306 308
84 89 86 96 109 121 122 117 138 152 173 243 287 307 301 303 309 308 311 306 303 302 301 301 303 312 313 311 306 299 303 308 306 308 308 311 314 315 314 310 305 300 301
79 83 83 84 89 101 102 89 90 123 145 319 309 318 318 317 314 309 308 312 315 300 297 300 305 311 310 308 306 309 311 310 305 308 309 312 315 317 316 314 308 301 292
82 82 78 76 75 79 86 69 48 45 328 304 303 307 316 318 315 315 311 315 316 306 299 305 308 308 308 306 307 312 312 306 305 305 307 310 313 311 313 313 313 310 306
83 81 78 74 62 51 46 39 19 323 291 289 299 301 306 308 312 317 315 313 313 311 310 308 308 307 308 309 312 312 309 306 304 302 304 309 313 314 315 318 315 320 321
67 69 59 50 44 28 7 333 299 280 288 284 283 288 292 295 309 321 318 311 312 313 317 314 316 319 320 321 319 319 318 315 311 311 310 314 315 315 316 319 316 320 321
52 38 28 13 4 349 328 323 325 306 316 313 305 299 297 300 310 315 317 317 319 322 318 312 312 312 313 316 316 317 317 318 318 315 313 314 313 314 316 318 320 322 321
31 7 358 345 333 319 313 309 318 334 333 322 318 320 320 319 317 318 319 321 319 321 312 307 305 306 308 309 309 311 313 315 317 317 314 312 311 312 313 316 320 321 323
11 359 345 329 315 301 296 294 292 300 312 319 322 323 327 327 323 322 323 323 317 317 308 302 302 304 306 307 307 308 311 315 317 317 314 311 310 309 310 313 320 322 322
348 346 336 324 313 302 298 293 289 289 291 300 312 317 325 324 324 325 326 307 300 301 301 300 301 303 305 306 307 308 310 311 314 315 313 312 311 311 311 315 319 325 324
341 341 327 314 307 302 297 293 290 289 290 294 301 308 320 322 318 319 316 306 299 297 299 299 300 301 303 304 305 306 307 308 312 310 310 311 312 311 311 315 318 321 324
323 326 325 308 299 296 293 288 285 284 286 292 294 303 314 305 302 302 303 303 301 301 301 301 301 303 304 304 304 304 304 304 306 306 306 307 308 310 313 316 317 321 334
304 304 306 301 298 297 295 292 289 286 289 291 297 303 309 301 297 296 298 300 302 302 302 301 301 303 303 303 303 304 303 304 305 304 302 304 307 309 312 320 325 333 350
289 287 289 291 292 295 297 294 290 290 292 295 298 300 302 301 300 299 299 300 304 306 306 305 304 306 309 308 303 301 299 299 298 298 298 300 306 309 315 324 327 344 358
275 275 280 287 292 293 294 294 292 292 294 294 295 296 297 297 299 301 301 303 305 308 309 309 307 308 313 314 311 307 305 302 297 292 289 291 297 309 320 329 331 351 17
272 273 276 279 283 286 288 289 291 293 294 294 294 295 296 297 298 300 303 306 307 309 313 314 314 314 314 315 316 316 317 315 311 305 296 287 291 304 322 336 356 29 36
272 272 275 276 275 278 280 283 287 291 290 292 292 292 292 294 298 302 307 309 312 315 317 319 320 320 319 319 319 323 325 325 321 316 303 296 293 313 343 24 35 57 65
Height
1493 1496 1499 1502 1504 1507 1509 1511 1512 1513 1514 1514 1515 1515 1515 1514 1514 1513 1512 1511 1510 1508 1507 1505 1503 1501 1499 1496 1494 1491 1488 1485 1479 1473 1469 1465 1460 1456 1451 1447 1442 1437 1432
1489 1493 1496 1498 1501 1503 1505 1507 1508 1509 1510 1511 1511 1511 1511 1511 1510 1509 1508 1507 1506 1505 1503 1501 1500 1497 1495 1492 1490 1487 1484 1481 1477 1470 1465 1461 1457 1452 1448 1443 1438 1433 1429
1486 1490 1492 1495 1497 1499 1501 1503 1504 1505 1506 1507 1507 1507 1507 1507 1506 1505 1504 1503 1502 1501 1500 1498 1496 1494 1491 1489 1486 1483 1480 1477 1473 1468 1462 1458 1453 1449 1444 1439 1435 1430 1425
1484 1487 1489 1492 1494 1496 1498 1499 1500 1501 1502 1503 1503 1503 1503 1503 1503 1502 1501 1500 1499 1497 1496 1494 1492 1490 1487 1485 1482 1479 1476 1472 1469 1464 1459 1455 1451 1446 1442 1436 1430 1426 1421
1481 1484 1486 1488 1491 1492 1494 1496 1497 1498 1498 1499 1499 1499 1499 1499 1499 1498 1497 1496 1495 1494 1492 1490 1488 1486 1484 1481 1478 1475 1472 1469 1465 1461 1456 1452 1447 1443 1439 1433 1428 1423 1418
1479 1481 1483 1485 1487 1489 1491 1492 1493 1494 1494 1495 1495 1495 1495 1495 1495 1494 1494 1493 1491 1490 1488 1486 1484 1482 1479 1477 1474 1471 1469 1465 1461 1457 1453 1449 1445 1441 1436 1431 1426 1421 1415
1477 1479 1481 1483 1485 1486 1488 1489 1490 1490 1491 1491 1492 1492 1492 1491 1491 1491 1490 1489 1488 1486 1484 1482 1480 1478 1476 1473 1470 1467 1464 1461 1458 1455 1450 1446 1442 1438 1434 1429 1424 1420 1415
1476 1477 1479 1481 1482 1484 1485 1486 1487 1487 1488 1488 1488 1488 1488 1488 1487 1487 1486 1485 1484 1482 1481 1479 1477 1474 1472 1469 1466 1463 1460 1457 1454 1450 1447 1443 1439 1435 1431 1427 1422 1417 1413
1474 1476 1477 1479 1480 1481 1482 1483 1483 1484 1485 1485 1485 1485 1484 1484 1484 1483 1483 1481 1480 1478 1477 1475 1473 1471 1468 1466 1463 1459 1456 1453 1450 1447 1443 1439 1435 1432 1428 1424 1419 1415 1410
1473 1475 1476 1477 1478 1479 1480 1480 1481 1481 1481 1482 1482 1482 1481 1481 1480 1480 1479 1478 1476 1475 1473 1471 1469 1467 1465 1462 1459 1456 1452 1449 1446 1443 1439 1436 1432 1428 1425 1421 1417 1413 1409
1472 1473 1474 1475 1476 1477 1477 1478 1478 1478 1479 1479 1479 1479 1479 1478 1477 1477 1476 1475 1473 1471 1469 1467 1465 1463 1461 1458 1456 1453 1449 1446 1443 1439 1436 1432 1428 1425 1422 1419 1415 1412 1408
1471 1472 1473 1473 1474 1474 1475 1475 1476 1476 1476 1476 1476 1476 1476 1475 1475 1474 1473 1472 1470 1468 1466 1464 1462 1459 1457 1455 1452 1449 1446 1443 1440 1436 1432 1429 1425 1422 1419 1416 1413 1410 1407
1470 1471 1471 1472 1472 1473 1473 1473 1473 1474 1474 1473 1473 1473 1473 1472 1471 1471 1469 1468 1466 1465 1463 1461 1458 1456 1453 1451 1448 1445 1442 1439 1436 1433 1429 1426 1423 1420 1416 1413 1411 1408 1405
1469 1470 1470 1470 1471 1471 1471 1471 1471 1471 1471 1471 1471 1470 1470 1469 1468 1467 1466 1465 1463 1461 1459 1457 1455 1452 1450 1447 1445 1442 1439 1436 1433 1430 1427 1423 1420 1417 1414 1411 1408 1406 1403
1468 1469 1469 1469 1469 1469 1470 1470 1469 1469 1469 1469 1469 1468 1467 1466 1466 1465 1463 1462 1460 1458 1456 1454 1452 1449 1447 1444 1441 1439 1436 1433 1431 1427 1424 1421 1418 1415 1413 1410 1407 1405 1402
1467 1467 1467 1467 1467 1467 1467 1467 1467 1467 1467 1467 1466 1466 1464 1464 1462 1461 1460 1459 1457 1456 1453 1451 1449 1446 1444 1441 1438 1436 1433 1431 1428 1425 1422 1419 1416 1414 1411 1409 1406 1404 1401
1466 1466 1466 1466 1465 1465 1465 1464 1464 1464 1464 1464 1463 1462 1462 1461 1459 1458 1457 1456 1454 1453 1451 1448 1446 1444 1442 1439 1436 1433 1431 1428 1426 1423 1420 1417 1415 1412 1410 1407 1405 1403 1401
1464 1464 1463 1463 1463 1463 1463 1462 1462 1461 1461 1460 1460 1459 1459 1458 1456 1455 1454 1453 1451 1449 1448 1446 1443 1441 1439 1437 1434 1431 1429 1426 1423 1421 1418 1416 1413 1411 1408 1406 1404 1402 1400
1462 1462 1461 1461 1461 1461 1460 1460 1459 1459 1458 1457 1457 1456 1456 1454 1453 1452 1451 1449 1448 1446 1445 1443 1441 1439 1436 1434 1432 1429 1426 1424 1421 1419 1416 1414 1412 1410 1407 1406 1404 1402 1400
1460 1459 1459 1459 1458 1458 1458 1457 1457 1456 1455 1455 1454 1453 1452 1451 1450 1449 1448 1446 1445 1443 1442 1440 1438 1436 1434 1432 1429 1427 1424 1421 1419 1417 1415 1412 1410 1409 1407 1405 1404 1402 1400
1458 1457 1457 1456 1456 1455 1455 1455 1454 1453 1453 1452 1451 1451 1450 1448 1447 1446 1444 1443 1442 1440 1438 1437 1435 1433 1431 1429 1427 1424 1422 1419 1417 1415 1413 1411 1409 1408 1406 1405 1403 1402 1400
1455 1455 1454 1454 1453 1453 1452 1452 1451 1450 1450 1449 1448 1448 1447 1446 1444 1443 1441 1440 1439 1437 1436 1434 1432 1430 1428 1426 1424 1422 1420 1418 1415 1413 1412 1410 1409 1407 1405 1404 1403 1402 1401
1453 1453 1452 1452 1451 1450 1450 1449 1449 1448 1447 1446 1445 1444 1444 1442 1441 1440 1438 1437 1435 1434 1432 1431 1429 1427 1426 1424 1422 1420 1418 1416 1414 1412 1411 1409 1408 1407 1405 1404 1403 1402 1401
1451 1450 1450 1449 1449 1448 1447 1447 1446 1445 1444 1444 1443 1442 1441 1439 1438 1437 1435 1434 1432 1431 1430 1428 1427 1425 1423 1422 1420 1418 1416 1415 1413 1411 1410 1409 1407 1407 1406 1405 1404 1403 1402
1448 1448 1447 1447 1446 1446 1445 1444 1444 1443 1442 1441 1440 1439 1438 1437 1436 1434 1433 1431 1430 1428 1427 1426 1424 1422 1421 1419 1418 1416 1414 1413 1411 1410 1409 1408 1407 1407 1406 1406 1405 1404 1404
1446 1445 1445 1445 1444 1444 1443 1442 1441 1441 1440 1439 1438 1437 1436 1434 1433 1432 1431 1429 1428 1426 1425 1423 1422 1420 1419 1417 1416 1414 1413 1412 1410 1409 1408 1408 1407 1407 1407 1406 1406 1406 1405